This is the latest recevied weather packets stored in our database for station/object KC3JUG-13. If no packets are shown the sender has not sent any weather packets the latest 10 day(s).
| Time | Temp. | Humidity | Pressure | Rain* | Wind** | Luminosity | Snow |
|---|---|---|---|---|---|---|---|
| 1777140659 | 8.33° C | 89% | 1015.7 hPa | 0.25 mm | - | - | - |
| 1777139879 | 8.89° C | 84% | 1016.6 hPa | 0 mm | - | - | - |
| 1777139099 | 9.44° C | 78% | 1016.9 hPa | 0 mm | - | - | - |
| 1777138319 | 10° C | 73% | 1016.3 hPa | 0 mm | - | - | - |
| 1777137539 | 10° C | 69% | 1016.5 hPa | 0 mm | - | - | - |
| 1777136759 | 10.56° C | 71% | 1016.4 hPa | 0 mm | - | - | - |
| 1777135979 | 10.56° C | 70% | 1016 hPa | 0 mm | - | - | - |
| 1777135199 | 10.56° C | 70% | 1015.7 hPa | 0 mm | - | - | - |
| 1777134420 | 10.56° C | 72% | 1015.7 hPa | 0 mm | - | - | - |
| 1777133639 | 10.56° C | 72% | 1015.8 hPa | 0 mm | - | - | - |
| 1777132860 | 11.11° C | 70% | 1015.8 hPa | 0 mm | - | - | - |
| 1777132080 | 11.11° C | 72% | 1015.4 hPa | 0 mm | - | - | - |
| 1777131300 | 11.11° C | 71% | 1015.5 hPa | 0 mm | - | - | - |
| 1777130519 | 11.11° C | 74% | 1015.8 hPa | 0 mm | - | - | - |
| 1777129740 | 11.11° C | 74% | 1015.6 hPa | 0 mm | - | - | - |
| 1777128960 | 10.56° C | 75% | 1015.7 hPa | 0 mm | - | - | - |
| 1777128180 | 10.56° C | 77% | 1015.7 hPa | 0 mm | - | - | - |
| 1777127400 | 10.56° C | 78% | 1015.8 hPa | 0 mm | - | - | - |
| 1777126620 | 10.56° C | 77% | 1015.7 hPa | 0 mm | - | - | - |
| 1777125840 | 10° C | 77% | 1015.9 hPa | 0 mm | - | - | - |
| 1777125060 | 10.56° C | 76% | 1016.1 hPa | 0 mm | - | - | - |
| 1777124280 | 10° C | 75% | 1015.6 hPa | 0 mm | - | - | - |
| 1777123500 | 10° C | 75% | 1015.7 hPa | 0 mm | - | - | - |
| 1777122720 | 10° C | 77% | 1015.6 hPa | 0 mm | - | - | - |
| 1777121940 | 10° C | 79% | 1015.6 hPa | 0 mm | - | - | - |
* Rain latest hour (hover to see other rain measurements)
** Current wind speed in m/s (hover to see current wind gust speed)